MST,Max TemperatureF,Mean TemperatureF,Min TemperatureF,Max Dew PointF,MeanDew PointF,Min DewpointF,Max Humidity, Mean Humidity, Min Humidity, Max Sea Level PressureIn, Mean Sea Level PressureIn, Min Sea Level PressureIn, Max VisibilityMiles, Mean VisibilityMiles, Min VisibilityMiles, Max Wind SpeedMPH, Mean Wind SpeedMPH, Max Gust SpeedMPH,PrecipitationIn, CloudCover, Events, WindDirDegrees
2013-10-1,84,72,59,37,32,27,32,24,15,29.98,29.92,29.88,10,10,10,14,7,18,0.00,0,,253
2013-10-2,82,70,57,39,35,28,48,30,15,29.98,29.91,29.85,10,10,10,14,5,23,0.00,0,,227
2013-10-3,84,70,57,43,37,30,51,32,14,29.98,29.85,29.76,10,10,10,18,5,29,0.00,1,,252
2013-10-4,80,68,57,46,36,23,63,35,12,29.98,29.89,29.80,10,10,10,18,8,25,0.00,0,,241
2013-10-5,75,64,52,27,20,11,31,19,13,30.10,30.05,29.98,10,10,10,12,7,,0.00,0,,339
2013-10-6,79,66,52,21,18,14,26,17,9,30.15,30.08,30.03,10,10,10,13,5,16,0.00,0,,114
2013-10-7,82,68,53,30,25,18,27,19,13,30.09,29.99,29.91,10,10,10,16,9,21,0.00,4,,154
2013-10-8,80,70,60,36,29,23,36,22,15,30.00,29.87,29.80,10,10,10,15,7,26,0.00,2,,209
2013-10-9,78,68,57,45,34,28,44,29,16,29.82,29.77,29.72,10,10,10,25,12,34,0.00,1,,179
2013-10-10,68,59,50,43,37,32,62,43,26,29.94,29.83,29.70,10,10,10,23,14,36,0.00,2,,225
2013-10-11,71,58,44,39,35,27,76,46,19,29.99,29.94,29.88,10,10,10,9,6,,0.00,0,,196
2013-10-12,80,64,48,39,31,21,54,32,12,30.02,29.92,29.85,10,10,10,13,7,17,0.00,0,,186
2013-10-13,81,68,55,46,39,31,51,35,16,29.97,29.93,29.87,10,10,10,21,7,31,0.00,0,,192
2013-10-14,75,65,55,51,44,37,78,47,27,30.02,29.95,29.90,10,10,10,22,7,28,0.00,0,,247
2013-10-15,77,65,53,43,36,25,67,37,22,30.08,29.91,29.83,10,10,10,17,7,22,0.00,1,,241
2013-10-16,75,62,48,25,16,3,37,21,8,30.04,29.99,29.94,10,10,10,20,8,23,0.00,0,,249
2013-10-17,75,60,46,16,12,1,29,17,6,30.06,29.97,29.89,10,10,10,14,6,18,0.00,0,,231
2013-10-18,73,60,46,19,17,16,30,19,11,30.01,29.97,29.91,10,10,10,10,7,,0.00,0,,232
2013-10-19,77,62,48,19,15,10,31,17,8,30.06,29.99,29.93,10,10,10,12,8,,0.00,0,,177
2013-10-20,77,62,48,32,10,0,41,14,5,29.98,29.92,29.85,10,10,10,14,7,17,0.00,0,,257
2013-10-21,77,64,50,14,10,5,21,13,6,30.02,29.97,29.92,10,10,10,12,8,,0.00,0,,243
2013-10-22,78,63,48,25,15,9,27,16,7,30.09,30.01,29.95,10,10,10,15,8,18,0.00,0,,139
2013-10-23,80,66,51,28,25,23,35,22,14,30.10,29.95,29.88,10,10,10,14,9,18,0.00,1,,121
2013-10-24,82,68,55,36,27,21,33,22,10,30.00,29.94,29.86,10,10,10,12,6,18,0.00,3,,211
2013-10-25,78,66,53,27,24,10,35,22,7,30.06,30.02,29.97,10,10,10,17,8,,0.00,0,,239
2013-10-26,77,65,53,29,21,16,33,21,10,30.12,30.04,29.54,10,10,10,16,6,,0.00,0,,134
2013-10-27,81,68,55,31,25,17,37,22,9,30.02,29.91,29.81,10,10,10,15,10,25,0.00,0,,166
2013-10-28,71,63,55,30,25,16,33,24,12,30.03,29.87,29.81,10,10,10,20,8,28,0.00,5,,218
2013-10-29,73,64,53,39,29,21,58,29,15,29.94,29.87,29.79,10,10,10,23,12,31,0.00,4,,220
2013-10-30,68,57,46,41,33,21,76,45,18,30.03,29.91,29.83,10,10,10,23,10,37,0.00,1,,258
2013-10-31,69,54,39,27,18,7,61,30,10,30.17,30.05,29.97,10,10,10,13,6,,0.00,0,,246